Powrót do katalogu

STARLINK-37947

AktywnyŁącznośćSSO
NORAD 100261·PAYLOAD·🇺🇸 United States

Wystrzelony Aug 8, 2026 z Vandenberg Space Force Base

Loading…

Następne Przeloty (najbliższe 24 godziny)

TLE

ŚwieżeSource: Space-Track

Epoka: Sep 14, 2026, 20:52 UTC

1 A0261U 26181R   26257.86979380  .00231983  00000-0  15107-2 0  9991
2 A0261  97.2838 301.1800 0001806  75.7978 284.3488 15.75245471  7026

Śledź STARLINK-37947 w czasie rzeczywistym z AllMySat

Download on the App Store